Location: Les Martinières
(47.2667°N, 1.4410°E)
Time: 00:42:17
(UTC+00:00)

Spot 4 - Pass Details

Date: 15 May 2026
Orbit: 698 x 714 km, 98.2° (Epoch: 9 June)

Event Time Altitude Azimuth Distance (km) Brightness Sun altitude
Exits shadow 23:36:14 52° 239° (WSW) 883 4.1 -23.6°
Maximum altitude 23:36:39 53° 260° (W) 864 4.1 -23.6°
Drops below altitude 10° 23:41:22 10° 337° (NNW) 2,192 7.3 -23.6°
Sets 23:43:41 0° 343° (NNW) 3,118 8.4 -23.7°
